• In Hungary
  • List of Countries
  • For 7 days
  • Water Temperature
  • Satellite Maps
  • Weather Map
  • News
  • Weather Widgets
  • user-avatar
    Login

    Hourly Weather Oran

    Today, 19 November, Sunday

    Time Temperature Precipitation Wind Pressure Humidity
    00:00 +15°C° 0 mm 2 mps 754 mmHg 49%
    01:00 +14°C° 0 mm 2 mps 754 mmHg 48%
    02:00 +14°C° 0 mm 2 mps 754 mmHg 47%
    03:00 +14°C° 0 mm 2 mps 754 mmHg 47%
    04:00 +14°C° 0 mm 2 mps 754 mmHg 46%
    05:00 +13°C° 0 mm 2 mps 754 mmHg 46%
    06:00 +13°C° 0 mm 2 mps 754 mmHg 46%
    07:00 +15°C° 0 mm 2 mps 754 mmHg 40%
    08:00 +17°C° 0 mm 2 mps 755 mmHg 34%
    09:00 +19°C° 0 mm 2 mps 755 mmHg 28%
    10:00 +20°C° 0 mm 2 mps 755 mmHg 26%
    11:00 +21°C° 0 mm 2 mps 755 mmHg 23%
    12:00 +23°C° 0 mm 2 mps 755 mmHg 20%
    13:00 +23°C° 0 mm 2 mps 755 mmHg 20%
    14:00 +24°C° 0 mm 2 mps 755 mmHg 20%
    15:00 +24°C° 0 mm 3 mps 754 mmHg 20%
    16:00 +22°C° 0 mm 3 mps 755 mmHg 24%
    17:00 +20°C° 0 mm 3 mps 755 mmHg 29%
    18:00 +19°C° 0 mm 3 mps 755 mmHg 33%
    19:00 +18°C° 0 mm 3 mps 755 mmHg 35%
    20:00 +17°C° 0 mm 3 mps 755 mmHg 36%
    21:00 +17°C° 0 mm 3 mps 756 mmHg 38%
    22:00 +16°C° 0 mm 2 mps 756 mmHg 37%
    23:00 +16°C° 0 mm 2 mps 756 mmHg 37%

    Tomorrow, 20 November, Monday

    Time Temperature Precipitation Wind Pressure Humidity
    00:00 +16°C° 0 mm 2 mps 756 mmHg 37%
    01:00 +15°C° 0 mm 2 mps 756 mmHg 37%
    02:00 +15°C° 0 mm 2 mps 756 mmHg 36%
    03:00 +15°C° 0 mm 2 mps 756 mmHg 36%
    04:00 +15°C° 0 mm 2 mps 756 mmHg 36%
    05:00 +14°C° 0 mm 2 mps 756 mmHg 36%
    06:00 +14°C° 0 mm 2 mps 756 mmHg 35%
    07:00 +16°C° 0 mm 2 mps 756 mmHg 31%
    08:00 +18°C° 0 mm 2 mps 757 mmHg 27%
    09:00 +20°C° 0 mm 2 mps 757 mmHg 23%
    10:00 +21°C° 0 mm 2 mps 757 mmHg 22%
    11:00 +23°C° 0 mm 2 mps 757 mmHg 20%
    12:00 +24°C° 0 mm 1 mps 757 mmHg 18%
    13:00 +25°C° 0 mm 2 mps 756 mmHg 18%
    14:00 +25°C° 0 mm 2 mps 756 mmHg 18%
    15:00 +25°C° 0 mm 3 mps 756 mmHg 17%
    16:00 +22°C° 0 mm 3 mps 756 mmHg 21%
    17:00 +21°C° 0 mm 3 mps 756 mmHg 25%
    18:00 +19°C° 0 mm 3 mps 756 mmHg 29%
    19:00 +18°C° 0 mm 3 mps 756 mmHg 31%
    20:00 +18°C° 0 mm 3 mps 756 mmHg 32%
    21:00 +17°C° 0 mm 3 mps 756 mmHg 34%
    22:00 +17°C° 0 mm 2 mps 756 mmHg 33%
    23:00 +16°C° 0 mm 2 mps 756 mmHg 33%

    Day after tomorrow, 21 November, Tuesday

    Time Temperature Precipitation Wind Pressure Humidity
    00:00 +16°C° 0 mm 2 mps 756 mmHg 32%
    01:00 +15°C° 0 mm 2 mps 756 mmHg 32%
    02:00 +15°C° 0 mm 1 mps 756 mmHg 31%
    03:00 +15°C° 0 mm 1 mps 756 mmHg 30%
    04:00 +14°C° 0 mm 1 mps 755 mmHg 30%
    05:00 +14°C° 0 mm 1 mps 755 mmHg 30%
    06:00 +14°C° 0 mm 1 mps 755 mmHg 30%
    07:00 +16°C° 0 mm 1 mps 756 mmHg 26%
    08:00 +19°C° 0 mm 1 mps 756 mmHg 23%
    09:00 +21°C° 0 mm 1 mps 756 mmHg 19%
    10:00 +22°C° 0 mm 1 mps 756 mmHg 18%
    11:00 +23°C° 0 mm 1 mps 755 mmHg 17%
    12:00 +24°C° 0 mm 1 mps 755 mmHg 16%
    13:00 +24°C° 0 mm 1 mps 755 mmHg 16%
    14:00 +24°C° 0 mm 1 mps 754 mmHg 16%
    15:00 +24°C° 0 mm 2 mps 754 mmHg 17%
    16:00 +23°C° 0 mm 2 mps 754 mmHg 20%
    17:00 +21°C° 0 mm 1 mps 754 mmHg 24%
    18:00 +19°C° 0 mm 1 mps 754 mmHg 27%
    19:00 +18°C° 0 mm 1 mps 754 mmHg 28%
    20:00 +18°C° 0 mm 1 mps 754 mmHg 30%
    21:00 +15°C° 0 mm 0 mps 754 mmHg 31%
    22:00 +14°C° 0 mm 0 mps 754 mmHg 31%
    23:00 +14°C° 0 mm 0 mps 754 mmHg 31%

    22 November, Wednesday

    Time Temperature Precipitation Wind Pressure Humidity
    00:00 +14°C° 0 mm 0 mps 754 mmHg 31%
    01:00 +13°C° 0 mm 0 mps 754 mmHg 31%
    02:00 +13°C° 0 mm 0 mps 753 mmHg 31%
    03:00 +13°C° 0 mm 0 mps 753 mmHg 31%
    04:00 +12°C° 0 mm 0 mps 753 mmHg 31%
    05:00 +13°C° 0 mm 1 mps 753 mmHg 31%
    06:00 +13°C° 0 mm 1 mps 753 mmHg 30%
    07:00 +15°C° 0 mm 1 mps 753 mmHg 27%
    08:00 +18°C° 0 mm 1 mps 753 mmHg 24%
    09:00 +20°C° 0 mm 1 mps 754 mmHg 20%
    10:00 +21°C° 0 mm 1 mps 753 mmHg 19%
    11:00 +22°C° 0 mm 1 mps 753 mmHg 17%
    12:00 +24°C° 0 mm 1 mps 753 mmHg 16%
    13:00 +24°C° 0 mm 1 mps 753 mmHg 16%
    14:00 +24°C° 0 mm 2 mps 752 mmHg 16%
    15:00 +24°C° 0 mm 2 mps 752 mmHg 16%
    16:00 +23°C° 0 mm 2 mps 752 mmHg 19%
    17:00 +20°C° 0 mm 2 mps 752 mmHg 23%
    18:00 +18°C° 0 mm 2 mps 752 mmHg 26%
    19:00 +18°C° 0 mm 2 mps 753 mmHg 27%
    20:00 +17°C° 0 mm 2 mps 753 mmHg 28%
    21:00 +16°C° 0 mm 2 mps 753 mmHg 28%
    22:00 +16°C° 0 mm 2 mps 753 mmHg 28%
    23:00 +16°C° 0 mm 2 mps 753 mmHg 28%

    23 November, Thursday

    Time Temperature Precipitation Wind Pressure Humidity
    00:00 +15°C° 0 mm 1 mps 753 mmHg 28%
    01:00 +15°C° 0 mm 2 mps 753 mmHg 28%
    02:00 +15°C° 0 mm 2 mps 753 mmHg 28%
    03:00 +15°C° 0 mm 2 mps 753 mmHg 29%
    04:00 +15°C° 0 mm 2 mps 753 mmHg 29%
    05:00 +14°C° 0 mm 2 mps 753 mmHg 29%
    06:00 +14°C° 0 mm 2 mps 753 mmHg 30%
    07:00 +16°C° 0 mm 2 mps 754 mmHg 27%
    08:00 +17°C° 0 mm 2 mps 754 mmHg 24%
    09:00 +19°C° 0 mm 2 mps 755 mmHg 21%
    10:00 +21°C° 0 mm 2 mps 754 mmHg 20%
    11:00 +23°C° 0 mm 2 mps 754 mmHg 18%
    12:00 +24°C° 0 mm 2 mps 754 mmHg 16%
    13:00 +25°C° 0 mm 2 mps 754 mmHg 16%
    14:00 +25°C° 0 mm 2 mps 754 mmHg 17%
    15:00 +25°C° 0 mm 2 mps 753 mmHg 17%
    16:00 +23°C° 0 mm 2 mps 754 mmHg 20%
    17:00 +20°C° 0 mm 2 mps 754 mmHg 24%
    18:00 +19°C° 0 mm 3 mps 754 mmHg 28%
    19:00 +18°C° 0 mm 2 mps 754 mmHg 28%
    20:00 +18°C° 0 mm 2 mps 755 mmHg 29%
    21:00 +17°C° 0 mm 2 mps 755 mmHg 29%
    22:00 +17°C° 0 mm 2 mps 755 mmHg 30%
    23:00 +16°C° 0 mm 2 mps 755 mmHg 30%

    24 November, Friday

    Time Temperature Precipitation Wind Pressure Humidity
    00:00 +16°C° 0 mm 2 mps 755 mmHg 31%
    01:00 +16°C° 0 mm 2 mps 755 mmHg 31%
    02:00 +15°C° 0 mm 2 mps 755 mmHg 31%
    03:00 +15°C° 0 mm 2 mps 755 mmHg 31%
    04:00 +15°C° 0 mm 2 mps 755 mmHg 31%
    05:00 +15°C° 0 mm 2 mps 755 mmHg 31%
    06:00 +14°C° 0 mm 2 mps 755 mmHg 31%
    07:00 +16°C° 0 mm 2 mps 755 mmHg 28%
    08:00 +18°C° 0 mm 2 mps 756 mmHg 26%
    09:00 +20°C° 0 mm 2 mps 756 mmHg 23%
    10:00 +21°C° 0 mm 2 mps 755 mmHg 21%
    11:00 +24°C° 0 mm 2 mps 755 mmHg 19%
    12:00 +25°C° 0 mm 1 mps 755 mmHg 17%
    13:00 +25°C° 0 mm 2 mps 754 mmHg 17%
    14:00 +26°C° 0 mm 2 mps 754 mmHg 16%
    15:00 +26°C° 0 mm 2 mps 754 mmHg 16%
    16:00 +25°C° 0 mm 3 mps 754 mmHg 19%
    17:00 +22°C° 0 mm 3 mps 754 mmHg 22%
    18:00 +21°C° 0 mm 4 mps 754 mmHg 25%
    19:00 +20°C° 0 mm 4 mps 754 mmHg 26%
    20:00 +20°C° 0 mm 4 mps 754 mmHg 26%
    21:00 +20°C° 0 mm 4 mps 754 mmHg 26%
    22:00 +19°C° 0 mm 4 mps 754 mmHg 26%
    23:00 +19°C° 0 mm 3 mps 754 mmHg 25%
    Show more